TY-1
1 41844U 16066D 22342.88321941 .00018971 00000-0 54918-3 0 9995
2 41844 97.3834 354.6098 0013126 33.6567 86.6350 15.35549978338328
CAS-2T
1 41847U 16066G 22342.13743736 .00000899 00000-0 14291-3 0 9996
2 41847 98.5312 46.4659 0363411 50.2616 313.0003 14.38940755319320
EO-88
1 42017U 17008BX 22342.45296116 .00035373 00000-0 83168-3 0 9997
2 42017 97.2482 46.5753 0003652 1.1359 358.9896 15.41902822323812
CAS-4B
1 42759U 17034B 22342.79113485 .00004710 00000-0 27108-3 0 9996
2 42759 43.0165 90.7976 0011433 309.5375 185.7512 15.13422327302756
CAS-4A
1 42761U 17034D 22342.81841852 .00005196 00000-0 29693-3 0 9998
2 42761 43.0165 89.3081 0011684 312.5758 191.2151 15.13516883302760
NIUSat
1 42766U 17036B 22342.08880944 .00014569 00000-0 50629-3 0 9996
2 42766 97.1826 13.8715 0014403 72.0025 288.2785 15.29737690303312
Aalto 1
1 42775U 17036L 22342.30927789 .00011372 00000-0 41369-3 0 9990
2 42775 97.1776 13.6394 0013527 71.9272 288.3440 15.28309357303307
URSA MAIOR
1 42776U 17036M 22342.34357605 .00012966 00000-0 45900-3 0 9994
2 42776 97.1789 14.6055 0013136 70.1880 290.0776 15.29176801303353
Max Valier Sat
1 42778U 17036P 22342.34190509 .00014929 00000-0 50937-3 0 9991
2 42778 97.1840 17.6036 0011739 70.5397 289.7111 15.30363364303463
Pegasus
1 42784U 17036V 22342.38936011 .00020673 00000-0 64308-3 0 9998
2 42784 97.1776 18.9386 0010923 69.5789 290.6626 15.33279177303628
NUDATSat
1 42787U 17036Y 22342.88786263 .00035325 00000-0 81944-3 0 9993
2 42787 97.1793 25.2177 0008590 52.0655 308.1422 15.42276210303898
SUCHAI 1
1 42788U 17036Z 22342.39090378 .00026407 00000-0 74559-3 0 9990
2 42788 97.1774 21.1562 0009857 63.9820 296.2439 15.36300250303837
SKCUBE
1 42789U 17036AA 22342.10992466 .00023397 00000-0 69121-3 0 9993
2 42789 97.1776 20.0912 0010116 65.6753 294.5546 15.34899229303669
VZLUSAT 1
1 42790U 17036AB 22342.01294785 .00044515 00000-0 10456-2 0 9995
2 42790 97.1787 24.2674 0008261 56.3185 303.8849 15.41854009303900
VENTA 1
1 42791U 17036AC 22342.36929317 .00019477 00000-0 59983-3 0 9998
2 42791 97.1783 20.0242 0010102 67.1200 293.1109 15.33618995303674
Robusta 1B
1 42792U 17036AD 22342.11780587 .00028645 00000-0 82028-3 0 9999
2 42792 97.1772 20.8338 0009576 65.4904 294.7337 15.35844413303726
D-SAT
1 42794U 17036AF 22342.26277457 .00002735 00000-0 23052-3 0 9998
2 42794 97.4556 338.6408 0119884 222.3891 136.8022 14.93551490297410
TechnoSat
1 42829U 17042E 22342.51363173 .00002063 00000-0 20645-3 0 9992
2 42829 97.3993 186.3589 0014697 139.8081 220.4228 14.92355169294048
AO-91
1 43017U 17073E 22342.43024101 .00008612 00000-0 63393-3 0 9995
2 43017 97.6535 229.4319 0243490 337.8326 21.2497 14.82832119272887
PICSAT
1 43132U 18004X 22342.62088592 .00027150 00000-0 75040-3 0 9993
2 43132 97.3577 58.4887 0008253 95.6706 264.5479 15.36976040273105
AO-92
1 43137U 18004AC 22342.46133272 .00018921 00000-0 58533-3 0 9990
2 43137 97.3534 56.3183 0008445 102.1368 258.0821 15.33499858272977
TianYi 2
1 43155U 18008A 22342.90665462 .00009399 00000-0 46335-3 0 9990
2 43155 97.3314 35.7590 0013636 256.0846 276.2621 15.18066087269719
Zhou Enlai
1 43156U 18008B 22342.86545862 .00010195 00000-0 50367-3 0 9993
2 43156 97.3360 35.6596 0011005 257.5386 221.2066 15.17995502269635
TianYi 6
1 43158U 18008D 22342.93171407 .00008156 00000-0 42100-3 0 9993
2 43158 97.3330 33.3123 0010575 260.2304 273.1023 15.16524377269521
S-Net D
1 43186U 18014G 22342.47657610 .00003321 00000-0 28110-3 0 9999
2 43186 97.6466 244.8175 0012252 77.3254 282.9338 14.98640979264973
S-Net B
1 43187U 18014H 22342.47698110 .00003339 00000-0 28257-3 0 9991
2 43187 97.6462 244.7607 0012316 77.1520 283.1079 14.98638256264974
S-Net A
1 43188U 18014J 22342.47728185 .00003361 00000-0 28440-3 0 9997
2 43188 97.6468 244.8349 0012314 77.2748 282.9851 14.98638792264976
S-Net C
1 43189U 18014K 22342.47837036 .00003425 00000-0 28978-3 0 9991
2 43189 97.6463 244.7483 0012422 77.2000 283.0610 14.98634793263523
FMN 1
1 43192U 18015A 22342.92226362 .00070933 00000-0 11436-2 0 9998
2 43192 97.5506 134.4495 0008438 131.0699 350.9488 15.52647253270360
Shaonian Xing
1 43199U 18015H 22342.89515598 .00029784 00000-0 70625-3 0 9997
2 43199 97.5323 127.3666 0012268 138.0349 349.4405 15.41612594270247
SurfSat
1 43614U 18070B 22342.35476679 .00166577 00000-0 97173-3 0 9996
2 43614 92.9985 173.2236 0008022 43.0767 317.1135 15.77919314238231
CP-7 DAVE
1 43615U 18070C 22342.49992593 .00115282 00000-0 84419-3 0 9996
2 43615 92.9980 172.8530 0009090 48.2805 311.9244 15.72795163238181
CubeBel-1
1 43666U 18083E 22342.89103278 .00014213 00000-0 53945-3 0 9996
2 43666 97.4056 9.8407 0014044 79.4601 358.8815 15.26857217228066
Changshagaoxin
1 43669U 18083H 22342.87006135 .00011461 00000-0 46134-3 0 9995
2 43669 97.4016 5.2514 0010852 78.2397 24.3866 15.24984570227854
Ten-Koh
1 43677U 18084G 22342.65939626 .00002051 00000-0 20948-3 0 9991
2 43677 97.9874 114.6097 0016687 60.0593 300.2279 14.91649010223647
PO-101
1 43678U 18084H 22342.91566280 .00000661 00000-0 70055-4 0 9993
2 43678 97.9942 118.5339 0011147 71.9383 288.3058 14.92528567223870
IRVINE 01
1 43693U 18088D 22342.54151196 .00141453 00000-0 16966-2 0 9993
2 43693 85.0206 191.3387 0005319 126.2660 233.9095 15.60433621227116
QO-100
1 43700U 18090A 22342.88774228 .00000160 00000-0 00000-0 0 9998
2 43700 0.0160 15.3506 0001673 269.4204 138.2272 1.00273305 14772
Reaktor Hello World
1 43743U 18096AA 22342.64466841 .00022466 00000-0 57443-3 0 9993
2 43743 97.3412 62.2100 0014106 149.0160 211.1921 15.39349960224704
MinXSS-2
1 43758U 18099A 22342.60602731 .00005486 00000-0 46194-3 0 9992
2 43758 97.6069 46.2520 0016154 46.5439 313.7124 14.98523620219174
AO-95
1 43770U 18099N 22342.59707289 .00004711 00000-0 40908-3 0 9995
2 43770 97.6016 44.3262 0015327 56.6239 303.6448 14.97406076219062
RANGE-B
1 43772U 18099Q 22342.43761453 .00005081 00000-0 43065-3 0 9991
2 43772 97.6129 46.3007 0013653 40.4979 319.7257 14.98328679219070
RANGE-A
1 43773U 18099R 22342.11140410 .00002949 00000-0 26253-3 0 9991
2 43773 97.5927 42.4286 0013930 46.1617 314.0754 14.96730562218965
MOVE-II
1 43780U 18099Y 22342.44130271 .00007203 00000-0 59256-3 0 9996
2 43780 97.6042 45.8032 0011824 48.8512 311.3729 14.99360205219117
SNUSat 2
1 43782U 18099AA 22342.42769854 .00002867 00000-0 25050-3 0 9997
2 43782 97.6015 44.6666 0012939 41.3152 318.9047 14.97496473219060
SnugLite
1 43784U 18099AC 22342.43591229 .00003947 00000-0 34008-3 0 9992
2 43784 97.5970 44.2978 0014930 47.7356 312.5130 14.97806492219094
ITASat 1
1 43786U 18099AE 22342.17895924 .00003234 00000-0 28235-3 0 9998
2 43786 97.6035 44.9224 0015282 49.5152 310.7399 14.97412409219048
EAGLET 1
1 43790U 18099AJ 22342.59627882 .00003277 00000-0 28601-3 0 9999
2 43790 97.6034 45.8708 0014196 53.2789 306.9735 14.97435657218848
ESEO
1 43792U 18099AL 22342.14207120 .00001619 00000-0 14685-3 0 9996
2 43792 97.5988 44.3625 0014381 51.5945 308.6566 14.96611889218809
CSIM
1 43793U 18099AM 22342.60433163 .00007682 00000-0 62026-3 0 9994
2 43793 97.6096 47.0437 0015586 46.1837 314.0673 15.00021939218975
Astrocast 0.1
1 43798U 18099AS 22342.45022641 .00004841 00000-0 40427-3 0 9992
2 43798 97.6040 46.5243 0011379 29.3421 330.8439 14.98951698219164
